Find Kuiper-00060

NORAD ID: 64520 Int'l Des: 2025-134 Owner: KUIP Country: US Constellation: kuiper operational
LEOCIRCULAR

Live Position

Loading 3D Globe...

About Kuiper-00060

Description loading...

Upcoming Passes

Passes for default location (London). Set your location on the main map for personalized predictions.

Altitude History

Loading altitude history...

Two-Line Element Set

1 64520U 25134W 26106.22413938 .00002269 00000-0 32662-3 0 9990
2 64520 51.9022 54.6479 0000948 81.0443 279.0626 14.79921854 45791
Epoch: Apr 16, 2026 • Age: 8 hours

Current Status

Altitude 641.5 km
Velocity 7.54 km/s
Sub-Earth Point -35.92°S, 130.34°W
Launch Date Jun 23, 2025
Age 0.8 years
Type internet

Technical Details

Classification Payload
Mass 490.00 kg
Dry Mass 490.00 kg
Total Mass 490.00 kg
Length 1.80 m
Diameter 0.70 m
Span 5.00 m
Shape Box + 2 pan
Manufacturer KUIP
Bus Type Kuiper
Phase Status In Orbit
Owner/State KUIP/US

Most Searched